Location: Kimberly
(42.5380°N, 114.3640°W)
Time: 16:11:31
(UTC-07:00)

Tiangong 2 - Visible Passes

Search period start: 21 February 2018 00:00
Search period end: 03 March 2018 00:00
Orbit: 384 x 388 km, 42.8° (Epoch: 21 February)

Date Brightness Start Highest point End Pass type
(mag) Time Alt. Az. Time Alt. Az. Time Alt. Az.
21 Feb 3.4 20:07:38 10° WSW 20:09:49 17° SSW 20:10:20 17° SSW visible
22 Feb 2.9 19:08:15 10° W 19:11:01 27° SSW 19:13:46 10° SE visible
24 Feb 3.9 18:47:28 10° WSW 18:49:37 17° SSW 18:51:45 10° S visible
